GW0564 Weather Reports


time (UTC)temp
F
wind
direction
speed
knots
gust
knots
rain 1hr
in
rain 24hr
in
rain mn
in
humidity
%
barometer
mb
20260502164021 60 360 13.0 18.2 0.00 0.00 0.00 24 1020.4
20260502163520 60 360 12.2 19.1 0.00 0.00 0.00 25 1020.4
20260502163041 60 360 13.0 19.1 0.00 0.00 0.00 26 1020.5
20260502162524 60 360 11.3 15.6 0.00 0.00 0.00 26 1020.5
20260502162021 59 360 10.4 17.4 0.00 0.00 0.00 27 1020.6
20260502161538 59 360 11.3 17.4 0.00 0.00 0.00 26 1020.7
20260502161021 59 360 12.2 19.1 0.00 0.00 0.00 26 1020.6
20260502160522 58 360 12.2 19.1 0.00 0.00 0.00 27 1020.7
20260502152020 55 360 10.4 14.8 0.00 0.00 0.00 30 1020.8
20260502151540 55 360 11.3 15.6 0.00 0.00 0.00 30 1020.8
20260502151024 55 360 9.6 15.6 0.00 0.00 0.00 31 1020.9
20260502150518 54 360 11.3 15.6 0.00 0.00 0.00 31 1021.0
20260502130521 45 360 9.6 13.9 0.00 0.00 0.00 42 1021.0
20260502123520 44 360 6.1 13.9 0.00 0.00 0.00 42 1020.8
20260502123039 44 360 8.7 13.9 0.00 0.00 0.00 42 1020.7
20260502122520 44 360 7.8 13.0 0.00 0.00 0.00 42 1020.7
20260502122020 44 360 7.0 13.0 0.00 0.00 0.00 42 1020.8
20260502121545 45 360 8.7 12.2 0.00 0.00 0.00 41 1020.7
20260502121020 45 360 7.8 14.8 0.00 0.00 0.00 41 1020.8
20260502120521 45 360 8.7 14.8 0.00 0.00 0.00 41 1020.8
20260502115524 44 227 7.0 11.3 0.00 0.00 0.00 41 1020.8
20260502115021 44 234 7.8 10.4 0.00 0.00 0.00 42 1020.8
20260502114541 44 259 6.1 13.0 0.00 0.00 0.00 42 1020.8
20260502114021 44 246 6.1 13.0 0.00 0.00 0.00 43 1020.7
20260502113521 45 360 9.6 13.0 0.00 0.00 0.00 41 1020.6
20260502113039 45 360 9.6 13.0 0.00 0.00 0.00 41 1020.6
20260502112520 45 360 7.8 13.9 0.00 0.00 0.00 41 1020.6
20260502112021 45 360 7.8 13.9 0.00 0.00 0.00 41 1020.7
20260502111539 45 360 7.0 13.9 0.00 0.00 0.00 41 1020.7
20260502111019 44 360 7.0 11.3 0.00 0.00 0.00 42 1020.7
20260502110521 44 257 7.0 10.4 0.00 0.00 0.00 42 1020.6
20260502110038 43 253 6.1 11.3 0.00 0.00 0.00 43 1020.7
20260502105525 43 252 7.0 14.8 0.00 0.00 0.00 43 1020.7
20260502105026 44 250 7.8 14.8 0.00 0.00 0.00 43 1020.7
20260502104547 44 226 7.0 13.0 0.00 0.00 0.00 42 1020.8
20260502104021 44 222 7.0 13.0 0.00 0.00 0.00 43 1020.7
20260502103523 44 232 7.8 13.0 0.00 0.00 0.00 42 1020.8
20260502103035 44 250 6.1 12.2 0.00 0.00 0.00 42 1020.8
20260502102521 44 360 7.8 12.2 0.00 0.00 0.00 42 1020.7
20260502102019 44 360 7.8 13.0 0.00 0.00 0.00 43 1020.7
20260502101539 43 360 8.7 13.9 0.00 0.00 0.00 43 1020.7
20260502101023 43 360 9.6 15.6 0.00 0.00 0.00 43 1020.7
20260502100520 43 360 8.7 15.6 0.00 0.00 0.00 44 1020.6
20260502091533 44 200 5.2 12.2 0.00 0.00 0.00 43 1020.9
20260502091020 44 230 7.8 13.9 0.00 0.00 0.00 43 1020.9
20260502090520 44 360 7.8 13.9 0.00 0.00 0.00 43 1020.9
20260502071020 45 360 6.1 12.2 0.00 0.00 0.00 41 1021.1
20260502070522 45 360 7.8 13.0 0.00 0.00 0.00 41 1021.1
20260502070040 45 360 7.8 13.9 0.00 0.00 0.00 40 1021.0
20260502065521 46 360 9.6 13.9 0.00 0.00 0.00 40 1021.1
20260502065020 46 360 7.0 11.3 0.00 0.00 0.00 39 1021.1
20260502064540 46 360 5.2 12.2 0.00 0.00 0.00 39 1021.1
20260502064020 46 360 7.0 12.2 0.00 0.00 0.00 40 1021.1
20260502063521 45 360 6.1 12.2 0.00 0.00 0.00 41 1021.1
20260502063040 45 360 7.8 12.2 0.00 0.00 0.00 41 1021.2
20260502062524 45 360 4.3 10.4 0.00 0.00 0.00 41 1021.2
20260502062024 45 360 3.5 10.4 0.00 0.00 0.00 41 1021.1
20260502061540 45 360 1.7 3.5 0.00 0.00 0.00 41 1021.1
20260502061020 45 360 0.9 3.5 0.00 0.00 0.00 41 1021.1
20260502060520 45 0 0.0 4.3 0.00 0.00 0.00 42 1021.0
20260502060042 45 360 0.9 4.3 0.00 0.00 0.00 43 1021.0
20260502055523 45 360 1.7 4.3 0.00 0.00 0.00 41 1021.0
20260502055021 45 0 0.0 2.6 0.00 0.00 0.00 42 1021.2
20260502054540 45 0 0.9 4.3 0.00 0.00 0.00 42 1021.0
20260502054021 46 360 0.0 5.2 0.00 0.00 0.00 41 1021.2
20260502053520 45 360 0.9 5.2 0.00 0.00 0.00 42 1021.1
20260502053039 44 360 1.7 4.3 0.00 0.00 0.00 43 1021.2
20260502052520 44 360 0.9 2.6 0.00 0.00 0.00 44 1021.2
20260502052020 43 77 0.9 2.6 0.00 0.00 0.00 45 1021.1
20260502051549 43 77 0.0 3.5 0.00 0.00 0.00 45 1021.2
20260502051020 43 77 1.7 3.5 0.00 0.00 0.00 45 1021.2
20260502050521 45 360 1.7 3.5 0.00 0.00 0.00 44 1021.1
20260502050042 46 360 0.9 2.6 0.00 0.00 0.00 41 1021.2
20260502045521 47 360 0.0 2.6 0.00 0.00 0.00 40 1021.2
20260502045021 47 0 0.9 2.6 0.00 0.00 0.00 39 1021.2
20260502044539 47 360 0.0 2.6 0.00 0.00 0.00 40 1021.2
20260502044020 47 0 0.9 2.6 0.00 0.00 0.00 40 1021.1
20260502043520 46 360 0.9 2.6 0.00 0.00 0.00 41 1021.2
20260502043043 46 0 0.0 0.0 0.00 0.00 0.00 41 1021.2
20260502042521 46 0 0.0 1.7 0.00 0.00 0.00 41 1021.3
20260502042020 47 0 0.0 1.7 0.00 0.00 0.00 42 1021.3
20260502041541 47 148 0.0 1.7 0.00 0.00 0.00 40 1021.3
20260502041021 48 0 0.0 1.7 0.00 0.00 0.00 40 1021.3
20260502040521 48 0 0.0 0.9 0.00 0.00 0.00 39 1021.2
20260502040036 49 0 0.0 0.9 0.00 0.00 0.00 38 1021.2
20260502035520 49 0 0.0 2.6 0.00 0.00 0.00 38 1021.1
20260502035021 49 0 0.0 2.6 0.00 0.00 0.00 37 1021.1
20260502034546 49 360 0.0 2.6 0.00 0.00 0.00 38 1021.1
20260502034020 49 0 0.9 5.2 0.00 0.00 0.00 37 1021.2
20260502033520 49 360 1.7 5.2 0.00 0.00 0.00 38 1021.1
20260502033049 50 360 2.6 7.0 0.00 0.00 0.00 37 1021.0
20260502032520 50 360 2.6 8.7 0.00 0.00 0.00 37 1020.8
20260502032020 50 360 4.3 8.7 0.00 0.00 0.00 37 1020.8
20260502031556 50 360 5.2 8.7 0.00 0.00 0.00 37 1020.8
20260502031020 50 360 4.3 7.8 0.00 0.00 0.00 37 1020.7
20260502030521 50 360 5.2 7.8 0.00 0.00 0.00 36 1020.7
20260502030037 51 360 4.3 7.8 0.00 0.00 0.00 36 1020.5
20260502025520 51 360 5.2 7.8 0.00 0.00 0.00 36 1020.4
20260502025020 51 360 5.2 7.8 0.00 0.00 0.00 35 1020.4
20260502024535 51 360 6.1 7.8 0.00 0.00 0.00 36 1020.2
20260502024021 51 360 5.2 8.7 0.00 0.00 0.00 36 1020.2
20260502023523 51 360 5.2 8.7 0.00 0.00 0.00 37 1020.0
20260502023039 52 360 6.1 8.7 0.00 0.00 0.00 36 1020.0
20260502022519 52 360 5.2 9.6 0.00 0.00 0.00 35 1020.0
20260502022020 53 360 6.1 9.6 0.00 0.00 0.00 34 1020.1
20260502021540 53 113 4.3 7.0 0.00 0.00 0.00 35 1020.0
20260502021021 54 113 2.6 6.1 0.00 0.00 0.00 34 1020.0
20260502020520 55 113 1.7 7.0 0.00 0.00 0.00 32 1020.0
20260502020041 56 109 2.6 7.0 0.00 0.00 0.00 31 1020.0
20260502015521 57 102 3.5 7.0 0.00 0.00 0.00 30 1020.0
20260502015021 58 104 4.3 9.6 0.00 0.00 0.00 29 1019.8
20260502014539 58 88 3.5 10.4 0.00 0.00 0.00 29 1019.8
20260502014020 59 71 7.0 10.4 0.00 0.00 0.00 28 1019.7
20260502013521 59 69 8.7 10.4 0.00 0.00 0.00 28 1019.6
20260502013040 59 58 7.0 12.2 0.00 0.00 0.00 27 1019.6
20260502012520 59 71 6.1 12.2 0.00 0.00 0.00 26 1019.6
20260502012021 59 52 8.7 12.2 0.00 0.00 0.00 25 1019.7
20260502011542 60 53 7.8 12.2 0.00 0.00 0.00 25 1019.7
20260502011020 60 39 7.8 13.0 0.00 0.00 0.00 25 1019.6
20260502010519 61 49 7.8 13.0 0.00 0.00 0.00 24 1019.5
20260502010033 61 56 7.8 11.3 0.00 0.00 0.00 24 1019.5
20260502005521 61 42 6.1 11.3 0.00 0.00 0.00 23 1019.5
20260502005021 62 40 7.8 11.3 0.00 0.00 0.00 24 1019.4
20260502004539 62 72 4.3 8.7 0.00 0.00 0.00 22 1019.5
20260502004021 62 44 1.7 5.2 0.00 0.00 0.00 21 1019.5
20260502003520 62 38 3.5 5.2 0.00 0.00 0.00 21 1019.5
20260502003039 62 11 0.9 9.6 0.00 0.00 0.00 21 1019.5
20260502002520 62 29 4.3 11.3 0.00 0.00 0.00 22 1019.5
20260502002025 62 68 4.3 11.3 0.00 0.00 0.00 22 1019.5
20260502001540 62 59 7.8 11.3 0.00 0.00 0.00 21 1019.5
20260502001021 63 360 7.0 11.3 0.00 0.00 0.00 22 1019.5
20260502000521 64 26 1.7 7.0 0.00 0.00 0.00 21 1019.6
20260502000038 63 360 1.7 8.7 0.00 0.00 0.00 21 1019.6
20260501235518 63 360 6.1 9.6 0.00 0.00 0.00 20 1019.6
20260501235023 63 360 4.3 10.4 0.00 0.00 0.00 20 1019.5
20260501234547 63 360 1.7 12.2 0.00 0.00 0.00 20 1019.7
20260501234018 63 275 7.8 12.2 0.00 0.00 0.00 20 1019.6
20260501233527 64 360 7.8 11.3 0.00 0.00 0.00 20 1019.5
20260501233039 64 360 0.9 10.4 0.00 0.00 0.00 22 1019.5
20260501232521 63 360 4.3 10.4 0.00 0.00 0.00 21 1019.6
20260501232019 63 360 2.6 11.3 0.00 0.00 0.00 21 1019.5
20260501231549 63 360 7.0 12.2 0.00 0.00 0.00 20 1019.6
20260501231018 63 360 9.6 12.2 0.00 0.00 0.00 20 1019.7
20260501230520 63 360 5.2 8.7 0.00 0.00 0.00 21 1019.6
20260501230039 63 360 3.5 13.0 0.00 0.00 0.00 22 1019.6
20260501225522 63 360 4.3 13.0 0.00 0.00 0.00 21 1019.7
20260501225021 63 360 4.3 13.0 0.00 0.00 0.00 21 1019.7
20260501224539 63 360 5.2 12.2 0.00 0.00 0.00 21 1019.8
20260501224018 62 285 0.9 10.4 0.00 0.00 0.00 20 1019.7
20260501223521 63 360 7.0 10.4 0.00 0.00 0.00 21 1019.8
20260501223033 63 360 0.9 5.2 0.00 0.00 0.00 21 1019.8
20260501222519 62 360 0.9 13.0 0.00 0.00 0.00 21 1019.8
20260501222020 62 360 4.3 13.0 0.00 0.00 0.00 21 1020.0
20260501221534 62 360 8.7 13.0 0.00 0.00 0.00 21 1020.0
20260501221020 62 360 1.7 11.3 0.00 0.00 0.00 21 1020.0
20260501220521 62 360 3.5 8.7 0.00 0.00 0.00 22 1020.0
20260501220044 62 360 0.9 4.3 0.00 0.00 0.00 21 1020.1
20260501215519 62 360 0.9 4.3 0.00 0.00 0.00 21 1020.2
20260501215019 61 360 1.7 5.2 0.00 0.00 0.00 20 1020.3
20260501214551 61 360 1.7 7.0 0.00 0.00 0.00 21 1020.4
20260501214021 61 360 1.7 11.3 0.00 0.00 0.00 21 1020.4
20260501213519 61 360 6.1 11.3 0.00 0.00 0.00 22 1020.5
20260501213045 61 360 3.5 11.3 0.00 0.00 0.00 22 1020.5
20260501212521 62 360 2.6 10.4 0.00 0.00 0.00 22 1020.5
20260501212019 61 360 3.5 10.4 0.00 0.00 0.00 23 1020.5
20260501211539 61 360 2.6 10.4 0.00 0.00 0.00 22 1020.6
20260501211021 61 360 0.9 8.7 0.00 0.00 0.00 24 1020.6
20260501210518 61 360 4.3 8.7 0.00 0.00 0.00 24 1020.7
20260501210040 61 360 4.3 12.2 0.00 0.00 0.00 22 1020.6
20260501205519 60 360 6.1 12.2 0.00 0.00 0.00 23 1020.6
20260501205019 60 360 4.3 14.8 0.00 0.00 0.00 23 1020.6
20260501204543 60 360 7.8 14.8 0.00 0.00 0.00 23 1020.6
20260501204021 60 360 5.2 9.6 0.00 0.00 0.00 22 1020.6
20260501203520 60 360 3.5 9.6 0.00 0.00 0.00 23 1020.6
20260501203039 60 360 1.7 9.6 0.00 0.00 0.00 23 1020.6
20260501202520 59 360 4.3 12.2 0.00 0.00 0.00 23 1020.6
20260501202020 59 360 3.5 12.2 0.00 0.00 0.00 23 1020.6
20260501201545 60 360 7.0 12.2 0.00 0.00 0.00 23 1020.7
20260501201022 60 360 2.6 7.0 0.00 0.00 0.00 22 1020.8
20260501200523 60 360 1.7 7.8 0.00 0.00 0.00 22 1020.7
20260501200035 59 360 2.6 7.8 0.00 0.00 0.00 22 1020.8
20260501195524 59 360 4.3 7.8 0.00 0.00 0.00 21 1020.8
20260501195021 59 360 3.5 13.0 0.00 0.00 0.00 23 1020.8
20260501194537 59 360 4.3 13.0 0.00 0.00 0.00 23 1020.8
20260501194020 59 360 0.9 10.4 0.00 0.00 0.00 23 1020.8
20260501193520 58 360 3.5 11.3 0.00 0.00 0.00 22 1020.8
20260501193043 58 360 7.0 11.3 0.00 0.00 0.00 21 1020.8
20260501192520 58 360 1.7 7.0 0.00 0.00 0.00 22 1020.8
20260501192021 58 360 2.6 11.3 0.00 0.00 0.00 22 1020.8
20260501191539 58 360 3.5 13.0 0.00 0.00 0.00 22 1020.8
20260501191021 58 360 8.7 13.0 0.00 0.00 0.00 22 1020.8
20260501190522 57 360 2.6 7.8 0.00 0.00 0.00 23 1020.8
20260501190039 56 360 2.6 7.8 0.00 0.00 0.00 21 1021.0
20260501185520 56 360 0.9 9.6 0.00 0.00 0.00 22 1021.0
20260501185020 56 360 4.3 10.4 0.00 0.00 0.00 22 1021.1
20260501184539 56 360 5.2 10.4 0.00 0.00 0.00 22 1021.1
20260501184020 56 360 6.1 10.4 0.00 0.00 0.00 23 1021.1
20260501183521 56 360 2.6 10.4 0.00 0.00 0.00 21 1021.1
20260501183039 56 360 1.7 12.2 0.00 0.00 0.00 22 1021.2
20260501182520 56 360 7.0 12.2 0.00 0.00 0.00 22 1021.3
20260501182021 55 360 0.9 11.3 0.00 0.00 0.00 23 1021.3
20260501181541 55 360 3.5 11.3 0.00 0.00 0.00 20 1021.4
20260501181020 55 360 4.3 10.4 0.00 0.00 0.00 22 1021.4
20260501180521 54 360 2.6 11.3 0.00 0.00 0.00 20 1021.4
20260501180042 54 360 7.8 12.2 0.00 0.00 0.00 22 1021.6
20260501175521 54 360 3.5 12.2 0.00 0.00 0.00 20 1021.6
20260501175021 54 360 8.7 12.2 0.00 0.00 0.00 21 1021.7
20260501174540 54 360 6.1 13.0 0.00 0.00 0.00 22 1021.8
20260501174020 54 360 6.1 13.0 0.00 0.00 0.00 23 1021.9
20260501173521 53 360 7.0 13.0 0.00 0.00 0.00 23 1022.0
20260501173037 53 360 3.5 10.4 0.00 0.00 0.00 23 1022.0
20260501172519 53 360 3.5 10.4 0.00 0.00 0.00 25 1022.0
20260501172021 52 360 4.3 11.3 0.00 0.00 0.00 26 1022.0